Content
SEND FEEDBACK

Daily
Averages
Monthly
Summary
United States of America

MALDEN, MISSOURI


Home > North America > United States > Missouri
Elevation: 295 feet     Latitude: 36 36N     Longitude: 089 59W

WEATHER
 
SELECT A DAY
Number of Records: 207,697;   Date Range: 1/1/95 - 7/26/14
 
SHARE

PRINT THIS DATA

[ ← Previous Day ]
WEATHER ALMANAC - SEPTEMBER 28, 2013
[ Next Day → ]
[ °C ]   °F
Weather ElementAverageHighLow
Temperature70.8 °F84 °F (1:53 pm)60.8 °F (4:33 am)
Dewpoint60.1 °F64.9 °F (9:53 am)57.2 °F (4:33 am)
Humidity71.3 %90 % (3:53 am)46 % (1:53 pm)
Barometer30.02 in30.09 in (9:53 am)29.97 in (4:53 pm)
Wind Speed5 mph15 mph (11:53 am)
Wind Gust19.6 mph (1:53 pm)
Weather ElementAverage
Visibility7.5 mi
Wind DirectionE (91.8 °)

Weather ElementTotal
Precipitation---
Cooling Degree Days7.4 (Base 65)
Growing Degree Days22.4 (Base 50)
Averaged from 28 records on September 28, 2013
WEATHER CONDITIONS BREAKOUT
WIND DIRECTION BREAKOUT
WEATHER BY HOUR - SEPTEMBER 28, 2013
[ °C ]   °F
Local TimeTemperatureDewpointHumidityBarometerVisibilityWind DirectionWind SpeedGust SpeedPrecipitationEventsConditions
1:53 AM64.0 °F60.1 °F87 %30.01 in9.0 miCalmClear
2:53 AM63.0 °F59.0 °F87 %30.01 in7.0 miCalmClear
3:53 AM61.0 °F57.9 °F90 %30.01 in2.5 miCalmClear
4:33 AM60.8 °F57.2 °F88 %30.03 in5.0 miCalmClear
4:53 AM61.0 °F57.9 °F90 %30.02 in4.0 miCalmScattered Clouds
5:04 AM60.8 °F57.2 °F88 %30.03 in2.5 miCalmMostly Cloudy
5:12 AM60.8 °F57.2 °F88 %30.03 in4.0 miCalmMostly Cloudy
5:53 AM61.0 °F57.9 °F90 %30.04 in6.0 miCalmPartly Cloudy
6:49 AM60.8 °F57.2 °F88 %30.06 in2.0 miCalmMostly Cloudy
6:53 AM61.0 °F57.9 °F90 %30.06 in2.0 miCalmMostly Cloudy
7:03 AM60.8 °F57.2 °F88 %30.07 in5.0 miCalmMostly Cloudy
7:53 AM64.9 °F61.0 °F87 %30.07 in4.0 miCalmMostly Cloudy
8:53 AM70.0 °F64.0 °F81 %30.08 in10.0 miSouth (190°)5.8 mphOvercast
9:53 AM73.9 °F64.9 °F73 %30.09 in10.0 miVariable4.6 mphOvercast
10:53 AM79.0 °F60.1 °F52 %30.08 in10.0 miSouth (190°)11.5 mphMostly Cloudy
11:53 AM81.0 °F60.1 °F49 %30.07 in10.0 miSSW (200°)15.0 mphPartly Cloudy
12:53 PM82.9 °F61.0 °F47 %30.05 in10.0 miSouth (180°)13.8 mphClear
1:53 PM84.0 °F61.0 °F46 %30.01 in10.0 miSouth (170°)12.7 mph19.6 mphPartly Cloudy
2:53 PM84.0 °F61.0 °F46 %29.99 in10.0 miSSE (160°)10.4 mph18.4 mphPartly Cloudy
3:53 PM84.0 °F62.1 °F47 %29.98 in9.0 miSouth (170°)11.5 mphMostly Cloudy
4:53 PM82.0 °F62.1 °F51 %29.97 in10.0 miSouth (170°)9.2 mphPartly Cloudy
5:53 PM80.1 °F61.0 °F52 %29.98 in10.0 miSouth (170°)6.9 mphOvercast
6:53 PM75.9 °F63.0 °F64 %29.98 in10.0 miSE (140°)5.8 mphMostly Cloudy
7:53 PM73.9 °F62.1 °F66 %29.98 in9.0 miSSE (150°)5.8 mphMostly Cloudy
8:53 PM73.9 °F61.0 °F64 %30.00 in9.0 miSSE (160°)6.9 mphMostly Cloudy
9:53 PM73.0 °F61.0 °F66 %29.99 in10.0 miSSE (160°)8.1 mphMostly Cloudy
10:53 PM73.0 °F61.0 °F66 %29.99 in10.0 miSouth (170°)5.8 mphOvercast
11:53 PM73.0 °F61.0 °F66 %29.99 in10.0 miSouth (190°)6.9 mphMostly Cloudy
Hourly data recorded from KPOF, located miles away from Malden, Missouri







STORIES FROM OUR PARTNERS